星链-36997(STARLINK-36997)

导读

STARLINK-36997(NORAD编号68248)是SpaceX星链(Starlink)低轨互联网星座中的一员,属于项目批量生产的通信卫星,主要为全球提供宽带互联网接入服务。星链星座计划总计部署超4万颗卫星,该卫星运行于近地轨道,是SpaceX截至2026年1月发射的超1.1万颗星链卫星之一。2026年SpaceX启动降轨计划,将包括该卫星在内的4400颗星链卫星轨道高度从550公里降至480公里,以降低碰撞风险,提升太空运行安全性,避免太空碎片产生。作为低轨通信卫星,它依托星座组网,可为偏远地区、航空、海事等场景提供低时延高速网络服务。

Basic Information
目录编号:
68248
目录名称:
STARLINK-36997
国际标识:
2026-054S
轨道中心:
EARTH
卫星名称:
星链-36997
卫星全名:
星链-36997(STARLINK-36997)
卫星状态:
在轨 (已飞行180 天)
发射日期:
2026-03-17 UTC
国别 :
美国 (US)
星等 :
--
This satellite is enrolled in the Space Conjunction Data Service (SCDS) and the current flight risk assessment level is: No High Risk
Orbit Information
数据来源 国际轨道数据 AOE轨道数据
星历时间 2026-09-13T09:39:51+0800
8小时前
查看轨道信息
2026-09-09T23:00:00+0800
3天前
查看轨道信息
半长轴 6840.836km 6840.868km
偏心率 0.0001448 0.0001149
轨道倾角 53.159° 53.157°
近地点辐角 75.025° 90.013°
升交点赤经 144.204° 160.305°
平近点角 285.091° 313.593°
近地点 461.708km 461.944km
远地点 463.69km 463.518km
周期 93.848分钟 93.848分钟
每日圈数 15.344017 15.343908
Detailed Information
固有亮度:
5
最大亮度:
2.5
卫星平台:
Starlink V1.0
覆盖范围:
全球
运营商:
太空探索技术公司
运营商所在国:
美国
制造商(研发单位):
太空探索技术公司
制造商所在国:
美国
使用方式:
暂无
Satellite Introduction
Starlink 计划是 SpaceX 推出的全球卫星互联网项目,通过发射低轨道卫星,为全球尤其是偏远地区提供高速、低延迟的互联网服务。自 2019 年起,Starlink 已部署数千颗卫星,旨在缩小全球数字鸿沟,推动互联网普及。该项目还为军事、航空等行业提供通信支持,带来广泛经济效益。
2D Orbit Map
3D Orbit Map
Orbit Altitude Analysis Chart
Orbit Inclination Analysis Chart
Orbit Comprehensive Analysis Chart
View Comprehensive Chart
Conjunction Data List
Event ID Objects TCA Miss Dist (km) Collision Risk Probability Collision Risk Index (CRI) Action
CDM_260915-082905-318306-824821
2026-09-15T
08:29:21+0000
2.718 km
极远距离
1.337248E-6 低风险 0.38
CDM_260913-184105-250206-824821
2026-09-13T
18:41:23+0000
2.822 km
极远距离
1.219645E-6 低风险 0.37
Miss Distance Evolution Trend with All Objects
Collision Probability Evolution Trend with All Objects